Regional Weather Roundup
Issued by NWS

Home | Current Version | Previous Version | Graphics & Text | Print | Product List | Glossary On
Versions: 1 2 3 4 5 6 7 8 9 10 11 12 13 14 15 16 17 18 19 20 21 22 23 24 25 26 27 28 29 30 31 32 33 34 35 36 37 38 39 40 41 42 43 44 45 46 47 48 49 50
000
ASUS43 KMKX 082021
RWRWI

WISCONSIN REGIONAL WEATHER ROUNDUP
NATIONAL WEATHER SERVICE MILWAUKEE/SULLIVAN WI
200 PM CST THU DEC 08 2016

NOTE: "FAIR" INDICATES FEW OR NO CLOUDS BELOW 12,000 FEET WITH NO
SIGNIFICANT WEATHER AND/OR OBSTRUCTIONS TO VISIBILITY.

WIZ001-002-006>008-014>016-023>028-082100-
NORTHWEST WISCONSIN

CITY           SKY/WX    TMP DP  RH WIND       PRES   REMARKS
SUPERIOR ARPT  CLOUDY    25  15  66 NW17      30.33R WCI  11
ASHLAND        PTSUNNY   26  18  71 NW12      30.27R WCI  16
HAYWARD        CLOUDY    24  15  68 NW7       30.27R WCI  16
SIREN          CLOUDY    26  15  64 NW12G17   30.32S WCI  15
CUMBERLAND     CLOUDY    23  14  68 NW17      30.29R WCI   9
RICE LAKE      CLOUDY    25  16  69 NW8       30.32R WCI  16
CHETEK         CLOUDY    24  17  73 NW7       30.30R WCI  16
LADYSMITH      CLOUDY    25  17  72 NW13      30.28R WCI  13
EAU CLAIRE     CLOUDY    25  14  63 NW13      30.31R WCI  14
MENOMONIE      CLOUDY    26  16  65 W13       30.33R WCI  15
NEW RICHMOND   FLURRIES  24  15  69 NW15      30.34R WCI  11
OSCEOLA        FLURRIES  25  16  69 W14G21    30.38R WCI  13
$$

WIZ003>005-009-010-017-018-082100-
NORTH CENTRAL WISCONSIN

CITY           SKY/WX    TMP DP  RH WIND       PRES   REMARKS
MANITOWISH WTR LGT SNOW  24  23  96 NW12G17   30.15R WCI  13
ARBOR VITAE    LGT SNOW  27  22  84 N14G21    30.14R VSB 1   WCI  15
WOODRUFF       LGT SNOW  27  22  84 N14G21    30.14R VSB 1   WCI  15
RHINELANDER    LGT SNOW  25  20  81 W15G24    30.14R VSB 3/4 WCI  13
EAGLE RIVER    PTSUNNY   26  17  68 NW12G20   30.12R WCI  16
LAND O LAKES   LGT SNOW  25  21  85 N10G18    30.13R VSB 3/4 WCI  14
PHILLIPS       CLOUDY    24  17  72 NW8       30.20R WCI  16
TOMAHAWK       CLOUDY    26  16  65 NW13G22   30.17R WCI  15
MEDFORD        CLOUDY    23  15  71 W15G21    30.20R WCI  10
MERRILL        PTSUNNY   27  16  63 NW12      30.19R WCI  16
$$

WIZ029-030-035-036-043>047-082100-
CENTRAL WISCONSIN

CITY           SKY/WX    TMP DP  RH WIND       PRES   REMARKS
WAUSAU         CLOUDY    25  16  68 W16       30.18R WCI  12
MOSINEE        CLOUDY    25  18  74 NW14G22   30.21R WCI  13
MARSHFIELD     FLURRIES  23  15  71 NW17G24   30.22R WCI   9
STEVENS POINT  CLOUDY    24  15  68 W12G17    30.22R WCI  13
WAUPACA        CLOUDY    31  18  60 W10G23    30.22R WCI  22
WAUTOMA        FLURRIES  25  18  74 W16G23    30.25R WCI  12
WISC RAPIDS    CLOUDY    25  17  72 NW14      30.25R WCI  13
CAMP DOUGLAS   FLURRIES  25  16  68 NW14      30.28R WCI  13
$$

WIZ011>013-019>022-031-037>040-048>050-082100-
NORTHEAST WISCONSIN

CITY           SKY/WX    TMP DP  RH WIND       PRES   REMARKS
ANTIGO         FLURRIES  25  18  77 NW14      30.14R WCI  13
SHAWANO        CLOUDY    32  18  56 NW14G20   30.17R WCI  22
OCONTO         CLOUDY    32  17  54 NW8G17    30.13R WCI  25
STURGEON BAY   CLOUDY    33  19  56 W16G22    30.10R WCI  23
GREEN BAY      FLURRIES  33  21  61 NW15      30.15R WCI  23
MANITOWOC      SUNNY     31  19  61 W21G28    30.15R WCI  18
APPLETON       PTSUNNY   28  16  59 W15       30.16R WCI  17
CLINTONVILLE   CLOUDY    30  16  55 NW21G26   30.18R WCI  17
OSHKOSH        CLOUDY    27  17  66 W16G22    30.20R WCI  15
$$

WIZ032>034-041-042-053>061-082100-
SOUTHWEST WISCONSIN

CITY           SKY/WX    TMP DP  RH WIND       PRES   REMARKS
LA CROSSE      FLURRIES  26  16  65 NW14G24   30.34R WCI  14
SPARTA         FLURRIES  24  17  75 W9        30.32R WCI  14
VIROQUA        CLOUDY    22  16  79 W10G16    30.30R WCI  11
BOSCOBEL       CLOUDY    25  16  68 W9        30.36R WCI  15
PRAIRIE DU CHI FLURRIES  24  14  64 NW15G24   30.37R WCI  12
PLATTEVILLE    CLOUDY    22  17  82 W16       30.33R WCI   8
$$

WIZ056-057-062-063-064-067-068-082100-
SOUTH CENTRAL WISCONSIN

CITY           SKY/WX    TMP DP  RH WIND       PRES   REMARKS
REEDSBURG      CLOUDY    23  16  74 NW15G23   30.29R WCI  10
BARABOO/DELLS  CLOUDY    23  16  73 W10G17    30.27R WCI  12
LONE ROCK      FLURRIES  24  14  65 W15       30.33R WCI  11
MINERAL POINT  FLURRIES  25  19  80 W14       30.29S WCI  13
MADISON        FLURRIES  22  14  71 W12G22    30.28R WCI  10
MIDDLETON      CLOUDY    24  17  75 NW14      30.29R WCI  12
WATERTOWN      CLOUDY    24  17  75 W12G18    30.25R WCI  12
MONROE         CLOUDY    23  16  74 W18G24    30.28R WCI   9
JANESVILLE     CLOUDY    25  16  68 NW16      30.28R WCI  12
$$

WIZ051-052-058>065-066-070>072-082100-
SOUTHEAST WISCONSIN

CITY           SKY/WX    TMP DP  RH WIND       PRES   REMARKS
MILWAUKEE      PTSUNNY   25  14  63 W24G31    30.23R WCI   9
WAUKESHA       CLOUDY    21  14  73 W14G23    30.24R WCI   8
MILWAUKEE/TIMM CLOUDY    25  12  58 W22       30.23R WCI  10
RACINE         MOSUNNY   25  13  60 W22G31    30.24R WCI  10
BURLINGTON     FLURRIES  28  21  76 W14G20    30.26R WCI  17
KENOSHA        CLOUDY    24  14  65 W18G28    30.25R WCI  10
FOND DU LAC    CLOUDY    26  16  65 W20       30.21R WCI  12
SHEBOYGAN      CLOUDY    27  17  66 W17G28    30.17R WCI  14
WEST BEND      NOT AVBL
JUNEAU         CLOUDY    23  16  74 W9G18     30.25R WCI  13
$$

LSZ147-162-082100-
LAKE SUPERIOR

STATION/POSITION TIME  TEMP    WIND        PRES    WAVE
                       AIR SEA DIR/SP/G            HT/PER
                 (UTC) (F)     (DEG/KT/KT) (MB)    (FT/S)
DEVILS ISLAND    2000   27     310/ 19/ 22 1025.5R
PORT WING        1940   27     310/ 16/ 21 1025.4R
SAXON HARBOR     1930   30     320/ 19/ 22 1023.7R
$$

LMZ867-665-643>646-082100-
LAKE MICHIGAN

STATION/POSITION TIME  TEMP    WIND        PRES    WAVE
                       AIR SEA DIR/SP/G            HT/PER
                 (UTC) (F)     (DEG/KT/KT) (MB)    (FT/S)
CHAMBERS ISLAND  1940   34     300/ 11/ 22 1018.3R
NORTHPORT PIER   2000   33     320/ 20     1018.3
SISTER BAY       1906   34     330/ 24/ 28   N/A
ALGOMA LAKESHORE 1836          300/ 12/ 23   N/A
KEWAUNEE LAKESHO 1954   32     300/ 14/ 21 1019.3R
SHEBOYGAN LAKESH 2000   27     280/ 22/ 25 1022.3R
PORT WASHINGTON  1930   26     290/ 15/ 24 1023.4R
MILWAUKEE LAKESH 2000   25     290/ 21/ 27   N/A
KENOSHA   LAKESH 2000   23     290/ 23/ 29 1023.7
$$

TC  - TEMPERATURE IN CELSIUS
VSB - VISIBILITY IN STATUTE MILES
WCI - WIND CHILL INDEX
HX  - HEAT INDEX




USA.gov is the U.S. government's official web portal to all federal, state and local government web resources and services.